This is the latest recevied weather packets stored in our database for station/object NB9X. If no packets are shown the sender has not sent any weather packets the latest 10 day(s).
| Time | Temp. | Humidity | Pressure | Rain* | Wind** | Luminosity | Snow |
|---|---|---|---|---|---|---|---|
| 1778243885 | 26.11° C | 100% | 1014.8 hPa | 0 mm | - | - | - |
| 1778243726 | 25.56° C | 100% | 1014.6 hPa | 0 mm | - | - | - |
| 1778243584 | 26.11° C | 100% | 1014.8 hPa | 0 mm | - | - | - |
| 1778243284 | 25.56° C | 100% | 1014.6 hPa | 0 mm | - | - | - |
| 1778242985 | 25.56° C | 100% | 1014.6 hPa | 0 mm | - | - | - |
| 1778242684 | 25.56° C | 100% | 1014.6 hPa | 0 mm | - | - | - |
| 1778242385 | 25.56° C | 100% | 1014.5 hPa | 0 mm | - | - | - |
| 1778242084 | 25.56° C | 100% | 1014.5 hPa | 0 mm | - | - | - |
| 1778241784 | 25° C | 100% | 1014.4 hPa | 0 mm | - | - | - |
| 1778241484 | 25° C | 100% | 1014.3 hPa | 0 mm | - | - | - |
| 1778241184 | 25° C | 100% | 1014.2 hPa | 0 mm | - | - | - |
| 1778240884 | 25° C | 100% | 1014.1 hPa | 0 mm | - | - | - |
| 1778240584 | 24.44° C | 100% | 1014 hPa | 0 mm | - | - | - |
| 1778240285 | 24.44° C | 100% | 1013.9 hPa | 0 mm | - | - | - |
| 1778239984 | 24.44° C | 100% | 1013.9 hPa | 0 mm | - | - | - |
| 1778239685 | 23.89° C | 100% | 1013.9 hPa | 0 mm | - | - | - |
| 1778239418 | 23.89° C | 100% | 1013.9 hPa | 0 mm | - | - | - |
| 1778239384 | 23.89° C | 100% | 1013.9 hPa | 0 mm | - | - | - |
| 1778239085 | 23.89° C | 100% | 1013.7 hPa | 0 mm | - | - | - |
| 1778238785 | 23.89° C | 100% | 1013.7 hPa | 0 mm | - | - | - |
| 1778238485 | 23.33° C | 100% | 1013.6 hPa | 0 mm | - | - | - |
| 1778238184 | 23.33° C | 100% | 1013.7 hPa | 0 mm | - | - | - |
| 1778237884 | 22.78° C | 100% | 1013.6 hPa | 0 mm | - | - | - |
| 1778237585 | 23.33° C | 100% | 1013.4 hPa | 0 mm | - | - | - |
| 1778237285 | 23.89° C | 100% | 1013.3 hPa | 0 mm | - | - | - |
* Rain latest hour (hover to see other rain measurements)
** Current wind speed in m/s (hover to see current wind gust speed)